owner,sensor,date,latitude,longitude,vertical_datum,direction_of_sea_water_velocity,sea_water_speed,upward_sea_water_velocity,qcFlag 
TABS,ioos:station:wmo:42049:1,2016-08-01T00:00:00Z,28.3507,-96.0058,2.0,36.92297533,6.492002773,-99999.0,'11133222,11111222,99999999' 
TABS,ioos:station:wmo:42049:1,2016-08-01T00:30:00Z,28.3507,-96.0058,2.0,50.74069844,5.372671589,-99999.0,'11133222,11111222,99999999' 
TABS,ioos:station:wmo:42049:1,2016-08-01T01:00:00Z,28.3507,-96.0058,2.0,24.44410808,3.141591953,-99999.0,'11133222,11111222,99999999' 
TABS,ioos:station:wmo:42049:1,2016-08-01T01:30:00Z,28.3507,-96.0058,2.0,342.1840242,7.321099644,-99999.0,'11133222,11111222,99999999' 
TABS,ioos:station:wmo:42049:1,2016-08-01T02:00:00Z,28.3507,-96.0058,2.0,334.0432891,7.585169741,-99999.0,'11133222,11111222,99999999' 
TABS,ioos:station:wmo:42049:1,2016-08-01T02:30:00Z,28.3507,-96.0058,2.0,332.8224571,8.363372525,-99999.0,'11133222,11111222,99999999' 
TABS,ioos:station:wmo:42049:1,2016-08-01T03:00:00Z,28.3507,-96.0058,2.0,319.8128263,8.259842614,-99999.0,'11133222,11111222,99999999' 
TABS,ioos:station:wmo:42049:1,2016-08-01T03:30:00Z,28.3507,-96.0058,2.0,310.6273946,9.64472913,-99999.0,'11133222,11111222,99999999' 
TABS,ioos:station:wmo:42049:1,2016-08-01T04:00:00Z,28.3507,-96.0058,2.0,321.103514,11.70532358,-99999.0,'11111222,11111222,99999999' 
TABS,ioos:station:wmo:42049:1,2016-08-01T04:30:00Z,28.3507,-96.0058,2.0,328.5464568,13.43397558,-99999.0,'11111222,11111222,99999999' 
TABS,ioos:station:wmo:42049:1,2016-08-01T05:00:00Z,28.3507,-96.0058,2.0,324.1587818,13.3721539,-99999.0,'11111222,11111222,99999999' 
TABS,ioos:station:wmo:42049:1,2016-08-01T05:30:00Z,28.3507,-96.0058,2.0,326.9864407,11.98513246,-99999.0,'11111222,11111222,99999999' 
TABS,ioos:station:wmo:42049:1,2016-08-01T06:00:00Z,28.3507,-96.0058,2.0,339.8288365,14.29689827,-99999.0,'11111222,11111222,99999999' 
TABS,ioos:station:wmo:42049:1,2016-08-01T06:30:00Z,28.3507,-96.0058,2.0,322.0006695,15.72305632,-99999.0,'11111222,11111222,99999999' 
TABS,ioos:station:wmo:42049:1,2016-08-01T07:00:00Z,28.3507,-96.0058,2.0,342.5952279,14.0744094,-99999.0,'11111222,11111222,99999999' 
TABS,ioos:station:wmo:42049:1,2016-08-01T07:30:00Z,28.3507,-96.0058,2.0,334.2609122,13.65484896,-99999.0,'11111222,11111222,99999999' 
TABS,ioos:station:wmo:42049:1,2016-08-01T08:00:00Z,28.3507,-96.0058,2.0,353.2903893,13.52262179,-99999.0,'11111222,11111222,99999999' 
TABS,ioos:station:wmo:42049:1,2016-08-01T08:30:00Z,28.3507,-96.0058,2.0,355.6689281,16.94840405,-99999.0,'11111222,11111222,99999999' 
TABS,ioos:station:wmo:42049:1,2016-08-01T09:00:00Z,28.3507,-96.0058,2.0,12.16595587,13.52371621,-99999.0,'11111222,11111222,99999999' 
TABS,ioos:station:wmo:42049:1,2016-08-01T09:30:00Z,28.3507,-96.0058,2.0,0.293280258,11.73015345,-99999.0,'11111222,11111222,99999999' 
TABS,ioos:station:wmo:42049:1,2016-08-01T10:00:00Z,28.3507,-96.0058,2.0,15.98646531,11.54653195,-99999.0,'11111222,11111222,99999999' 
TABS,ioos:station:wmo:42049:1,2016-08-01T10:30:00Z,28.3507,-96.0058,2.0,16.06523399,6.576838146,-99999.0,'11133222,11111222,99999999' 
TABS,ioos:station:wmo:42049:1,2016-08-01T11:00:00Z,28.3507,-96.0058,2.0,19.57329052,9.074364992,-99999.0,'11133222,11111222,99999999' 
TABS,ioos:station:wmo:42049:1,2016-08-01T11:30:00Z,28.3507,-96.0058,2.0,30.1613893,11.26513205,-99999.0,'11111222,11111222,99999999' 
TABS,ioos:station:wmo:42049:1,2016-08-01T12:00:00Z,28.3507,-96.0058,2.0,33.24471288,12.84169771,-99999.0,'11111222,11111222,99999999' 
TABS,ioos:station:wmo:42049:1,2016-08-01T12:30:00Z,28.3507,-96.0058,2.0,37.03314965,9.132037013,-99999.0,'11133222,11111222,99999999' 
TABS,ioos:station:wmo:42049:1,2016-08-01T13:00:00Z,28.3507,-96.0058,2.0,41.39883553,9.118470266,-99999.0,'11133222,11111222,99999999' 
TABS,ioos:station:wmo:42049:1,2016-08-01T13:30:00Z,28.3507,-96.0058,2.0,45.78719763,9.780209609,-99999.0,'11133222,11111222,99999999' 
TABS,ioos:station:wmo:42049:1,2016-08-01T14:00:00Z,28.3507,-96.0058,2.0,31.48128013,11.58520177,-99999.0,'11111222,11111222,99999999' 
TABS,ioos:station:wmo:42049:1,2016-08-01T14:30:00Z,28.3507,-96.0058,2.0,40.48612733,10.78146558,-99999.0,'11111222,11111222,99999999' 
TABS,ioos:station:wmo:42049:1,2016-08-01T15:00:00Z,28.3507,-96.0058,2.0,52.85751653,10.08611422,-99999.0,'11111222,11111222,99999999' 
TABS,ioos:station:wmo:42049:1,2016-08-01T15:30:00Z,28.3507,-96.0058,2.0,53.71152241,8.870456584,-99999.0,'11133222,11111222,99999999' 
TABS,ioos:station:wmo:42049:1,2016-08-01T16:00:00Z,28.3507,-96.0058,2.0,53.147075,6.786000295,-99999.0,'11133222,11111222,99999999' 
TABS,ioos:station:wmo:42049:1,2016-08-01T16:30:00Z,28.3507,-96.0058,2.0,37.92866955,8.443441242,-99999.0,'11133222,11111222,99999999' 
TABS,ioos:station:wmo:42049:1,2016-08-01T17:00:00Z,28.3507,-96.0058,2.0,50.34314849,6.910173659,-99999.0,'11133222,11111222,99999999' 
TABS,ioos:station:wmo:42049:1,2016-08-01T17:30:00Z,28.3507,-96.0058,2.0,47.99823394,5.813303708,-99999.0,'11133222,11111222,99999999' 
TABS,ioos:station:wmo:42049:1,2016-08-01T18:00:00Z,28.3507,-96.0058,2.0,47.63528365,3.383548433,-99999.0,'11133222,11111222,99999999' 
TABS,ioos:station:wmo:42049:1,2016-08-01T18:30:00Z,28.3507,-96.0058,2.0,27.4861162,5.286747582,-99999.0,'11133222,11111222,99999999' 
TABS,ioos:station:wmo:42049:1,2016-08-01T19:00:00Z,28.3507,-96.0058,2.0,36.31168619,2.668126684,-99999.0,'11133222,11111222,99999999' 
TABS,ioos:station:wmo:42049:1,2016-08-01T19:30:00Z,28.3507,-96.0058,2.0,110.9426016,1.734589289,-99999.0,'11133222,11111222,99999999' 
TABS,ioos:station:wmo:42049:1,2016-08-01T20:00:00Z,28.3507,-96.0058,2.0,347.5265947,3.379778099,-99999.0,'11133222,11111222,99999999' 
TABS,ioos:station:wmo:42049:1,2016-08-01T20:30:00Z,28.3507,-96.0058,2.0,345.9639998,2.556325488,-99999.0,'11133222,11111222,99999999' 
TABS,ioos:station:wmo:42049:1,2016-08-01T21:00:00Z,28.3507,-96.0058,2.0,302.4848711,3.295648646,-99999.0,'11133222,11111222,99999999' 
TABS,ioos:station:wmo:42049:1,2016-08-01T21:30:00Z,28.3507,-96.0058,2.0,320.8315685,3.340688552,-99999.0,'11133222,11111222,99999999' 
TABS,ioos:station:wmo:42049:1,2016-08-01T22:00:00Z,28.3507,-96.0058,2.0,321.2532581,5.128752285,-99999.0,'11133222,11111222,99999999' 
TABS,ioos:station:wmo:42049:1,2016-08-01T22:30:00Z,28.3507,-96.0058,2.0,300.2190467,7.649483643,-99999.0,'11133222,11111222,99999999' 
TABS,ioos:station:wmo:42049:1,2016-08-01T23:00:00Z,28.3507,-96.0058,2.0,286.9912045,10.54005693,-99999.0,'11111222,11111222,99999999' 
TABS,ioos:station:wmo:42049:1,2016-08-01T23:30:00Z,28.3507,-96.0058,2.0,304.7003415,14.94871901,-99999.0,'11111222,11111222,99999999' 
TABS,ioos:station:wmo:42049:1,2016-08-02T00:00:00Z,28.3507,-96.0058,2.0,297.007662,16.80231532,-99999.0,'11111222,11111222,99999999' 
TABS,ioos:station:wmo:42049:1,2016-08-02T00:30:00Z,28.3507,-96.0058,2.0,277.8033209,17.08822109,-99999.0,'11111222,11111222,99999999' 
TABS,ioos:station:wmo:42049:1,2016-08-02T01:00:00Z,28.3507,-96.0058,2.0,280.0895513,17.58187988,-99999.0,'11111222,11111222,99999999' 
TABS,ioos:station:wmo:42049:1,2016-08-02T01:30:00Z,28.3507,-96.0058,2.0,294.9563204,17.04108565,-99999.0,'11111222,11111222,99999999' 
TABS,ioos:station:wmo:42049:1,2016-08-02T02:00:00Z,28.3507,-96.0058,2.0,297.8271177,21.12254719,-99999.0,'11111222,11111222,99999999' 
TABS,ioos:station:wmo:42049:1,2016-08-02T02:30:00Z,28.3507,-96.0058,2.0,304.6816549,23.56719118,-99999.0,'11111222,11111222,99999999' 
TABS,ioos:station:wmo:42049:1,2016-08-02T03:00:00Z,28.3507,-96.0058,2.0,305.7740797,23.41828559,-99999.0,'11111222,11111222,99999999' 
TABS,ioos:station:wmo:42049:1,2016-08-02T03:30:00Z,28.3507,-96.0058,2.0,302.6165892,25.75093202,-99999.0,'11111222,11111222,99999999' 
TABS,ioos:station:wmo:42049:1,2016-08-02T04:00:00Z,28.3507,-96.0058,2.0,313.9054534,29.60489487,-99999.0,'11111222,11111222,99999999' 
TABS,ioos:station:wmo:42049:1,2016-08-02T04:30:00Z,28.3507,-96.0058,2.0,308.2586342,26.74385163,-99999.0,'11111222,11111222,99999999' 
TABS,ioos:station:wmo:42049:1,2016-08-02T05:00:00Z,28.3507,-96.0058,2.0,311.5109989,24.39798762,-99999.0,'11111222,11111222,99999999' 
TABS,ioos:station:wmo:42049:1,2016-08-02T05:30:00Z,28.3507,-96.0058,2.0,314.2597907,26.80865718,-99999.0,'11111222,11111222,99999999' 
TABS,ioos:station:wmo:42049:1,2016-08-02T06:00:00Z,28.3507,-96.0058,2.0,316.940127,24.64972616,-99999.0,'11111222,11111222,99999999' 
TABS,ioos:station:wmo:42049:1,2016-08-02T06:30:00Z,28.3507,-96.0058,2.0,312.5287809,23.44826006,-99999.0,'11111222,11111222,99999999' 
TABS,ioos:station:wmo:42049:1,2016-08-02T07:00:00Z,28.3507,-96.0058,2.0,320.6961028,21.80167425,-99999.0,'11111222,11111222,99999999' 
TABS,ioos:station:wmo:42049:1,2016-08-02T07:30:00Z,28.3507,-96.0058,2.0,326.1671523,21.10363476,-99999.0,'11111222,11111222,99999999' 
TABS,ioos:station:wmo:42049:1,2016-08-02T08:00:00Z,28.3507,-96.0058,2.0,335.9923846,17.94218771,-99999.0,'11111222,11111222,99999999' 
TABS,ioos:station:wmo:42049:1,2016-08-02T08:30:00Z,28.3507,-96.0058,2.0,338.9370371,15.99898122,-99999.0,'11111222,11111222,99999999' 
TABS,ioos:station:wmo:42049:1,2016-08-02T09:00:00Z,28.3507,-96.0058,2.0,346.2007573,13.49964814,-99999.0,'11111222,11111222,99999999' 
TABS,ioos:station:wmo:42049:1,2016-08-02T09:30:00Z,28.3507,-96.0058,2.0,337.2352546,10.93157354,-99999.0,'11111222,11111222,99999999' 
TABS,ioos:station:wmo:42049:1,2016-08-02T10:00:00Z,28.3507,-96.0058,2.0,349.1349921,9.602135179,-99999.0,'11133222,11111222,99999999' 
TABS,ioos:station:wmo:42049:1,2016-08-02T10:30:00Z,28.3507,-96.0058,2.0,22.62002251,5.46,-99999.0,'11133222,11111222,99999999' 
TABS,ioos:station:wmo:42049:1,2016-08-02T11:00:00Z,28.3507,-96.0058,2.0,358.1440568,4.322267923,-99999.0,'11133222,11111222,99999999' 
TABS,ioos:station:wmo:42049:1,2016-08-02T11:30:00Z,28.3507,-96.0058,2.0,358.7015392,3.97102002,-99999.0,'11133222,11111222,99999999' 
TABS,ioos:station:wmo:42049:1,2016-08-02T12:00:00Z,28.3507,-96.0058,2.0,2.571640328,3.343366567,-99999.0,'11133222,11111222,99999999' 
TABS,ioos:station:wmo:42049:1,2016-08-02T12:30:00Z,28.3507,-96.0058,2.0,111.5225498,3.052867504,-99999.0,'11133222,11111222,99999999' 
TABS,ioos:station:wmo:42049:1,2016-08-02T13:00:00Z,28.3507,-96.0058,2.0,134.4806131,2.340619576,-99999.0,'11133222,11111222,99999999' 
TABS,ioos:station:wmo:42049:1,2016-08-02T13:30:00Z,28.3507,-96.0058,2.0,152.0658636,4.867073042,-99999.0,'11133222,11111222,99999999' 
TABS,ioos:station:wmo:42049:1,2016-08-02T14:00:00Z,28.3507,-96.0058,2.0,161.4217643,7.595814637,-99999.0,'11133222,11111222,99999999' 
TABS,ioos:station:wmo:42049:1,2016-08-02T14:30:00Z,28.3507,-96.0058,2.0,173.0224587,6.256332792,-99999.0,'11133222,11111222,99999999' 
TABS,ioos:station:wmo:42049:1,2016-08-02T15:00:00Z,28.3507,-96.0058,2.0,201.6145179,6.841052551,-99999.0,'11133222,11111222,99999999' 
TABS,ioos:station:wmo:42049:1,2016-08-02T15:30:00Z,28.3507,-96.0058,2.0,202.5767637,10.28846441,-99999.0,'11111222,11111222,99999999' 
TABS,ioos:station:wmo:42049:1,2016-08-02T16:00:00Z,28.3507,-96.0058,2.0,206.0715715,9.351582754,-99999.0,'11133222,11111222,99999999' 
TABS,ioos:station:wmo:42049:1,2016-08-02T16:30:00Z,28.3507,-96.0058,2.0,213.6426989,10.1260555,-99999.0,'11111222,11111222,99999999' 
TABS,ioos:station:wmo:42049:1,2016-08-02T17:00:00Z,28.3507,-96.0058,2.0,217.1667235,11.57015557,-99999.0,'11111222,11111222,99999999' 
TABS,ioos:station:wmo:42049:1,2016-08-02T17:30:00Z,28.3507,-96.0058,2.0,228.5416634,10.30100966,-99999.0,'11111222,11111222,99999999' 
TABS,ioos:station:wmo:42049:1,2016-08-02T18:00:00Z,28.3507,-96.0058,2.0,254.566515,10.44668847,-99999.0,'11111222,11111222,99999999' 
TABS,ioos:station:wmo:42049:1,2016-08-02T18:30:00Z,28.3507,-96.0058,2.0,229.9970461,10.79613357,-99999.0,'11111222,11111222,99999999' 
TABS,ioos:station:wmo:42049:1,2016-08-02T19:00:00Z,28.3507,-96.0058,2.0,250.8381677,10.72414565,-99999.0,'11111222,11111222,99999999' 
TABS,ioos:station:wmo:42049:1,2016-08-02T19:30:00Z,28.3507,-96.0058,2.0,255.1803801,13.48866561,-99999.0,'11111222,11111222,99999999' 
TABS,ioos:station:wmo:42049:1,2016-08-02T20:00:00Z,28.3507,-96.0058,2.0,258.3757535,11.81225211,-99999.0,'11111222,11111222,99999999' 
TABS,ioos:station:wmo:42049:1,2016-08-02T20:30:00Z,28.3507,-96.0058,2.0,260.3613526,14.99161432,-99999.0,'11111222,11111222,99999999' 
TABS,ioos:station:wmo:42049:1,2016-08-02T21:00:00Z,28.3507,-96.0058,2.0,261.9779785,19.42001545,-99999.0,'11111222,11111222,99999999' 
TABS,ioos:station:wmo:42049:1,2016-08-02T21:30:00Z,28.3507,-96.0058,2.0,271.6198664,19.10763198,-99999.0,'11111222,11111222,99999999' 
TABS,ioos:station:wmo:42049:1,2016-08-02T22:00:00Z,28.3507,-96.0058,2.0,275.0586583,20.18862303,-99999.0,'11111222,11111222,99999999' 
TABS,ioos:station:wmo:42049:1,2016-08-02T22:30:00Z,28.3507,-96.0058,2.0,274.2757606,21.73046939,-99999.0,'11111222,11111222,99999999' 
TABS,ioos:station:wmo:42049:1,2016-08-02T23:00:00Z,28.3507,-96.0058,2.0,271.9776467,25.79535811,-99999.0,'11111222,11111222,99999999' 
TABS,ioos:station:wmo:42049:1,2016-08-02T23:30:00Z,28.3507,-96.0058,2.0,276.0279371,25.90320443,-99999.0,'11111222,11111222,99999999' 
TABS,ioos:station:wmo:42049:1,2016-08-03T00:00:00Z,28.3507,-96.0058,2.0,277.8267187,28.27335495,-99999.0,'11111222,11111222,99999999' 
TABS,ioos:station:wmo:42049:1,2016-08-03T00:30:00Z,28.3507,-96.0058,2.0,274.3901228,24.43167002,-99999.0,'11111222,11111222,99999999' 
TABS,ioos:station:wmo:42049:1,2016-08-03T01:00:00Z,28.3507,-96.0058,2.0,280.0874676,25.17920173,-99999.0,'11111222,11111222,99999999' 
TABS,ioos:station:wmo:42049:1,2016-08-03T01:30:00Z,28.3507,-96.0058,2.0,280.6714675,25.32801216,-99999.0,'11111222,11111222,99999999' 
TABS,ioos:station:wmo:42049:1,2016-08-03T02:00:00Z,28.3507,-96.0058,2.0,286.400759,23.87127144,-99999.0,'11111222,11111222,99999999' 
TABS,ioos:station:wmo:42049:1,2016-08-03T02:30:00Z,28.3507,-96.0058,2.0,291.8461637,23.9714184,-99999.0,'11111222,11111222,99999999' 
TABS,ioos:station:wmo:42049:1,2016-08-03T03:00:00Z,28.3507,-96.0058,2.0,302.0211618,23.61251363,-99999.0,'11111222,11111222,99999999' 
TABS,ioos:station:wmo:42049:1,2016-08-03T03:30:00Z,28.3507,-96.0058,2.0,300.4096995,18.6101827,-99999.0,'11111222,11111222,99999999' 
TABS,ioos:station:wmo:42049:1,2016-08-03T04:00:00Z,28.3507,-96.0058,2.0,299.2825334,18.58473029,-99999.0,'11111222,11111222,99999999' 
TABS,ioos:station:wmo:42049:1,2016-08-03T04:30:00Z,28.3507,-96.0058,2.0,294.7686606,17.54387072,-99999.0,'11111222,11111222,99999999' 
TABS,ioos:station:wmo:42049:1,2016-08-03T05:00:00Z,28.3507,-96.0058,2.0,310.4015304,14.28712707,-99999.0,'11111222,11111222,99999999' 
TABS,ioos:station:wmo:42049:1,2016-08-03T05:30:00Z,28.3507,-96.0058,2.0,304.7919841,23.65956255,-99999.0,'11111222,11111222,99999999' 
TABS,ioos:station:wmo:42049:1,2016-08-03T06:00:00Z,28.3507,-96.0058,2.0,307.8938643,13.54616182,-99999.0,'11111222,11111222,99999999' 
TABS,ioos:station:wmo:42049:1,2016-08-03T06:30:00Z,28.3507,-96.0058,2.0,321.6767801,12.77211024,-99999.0,'11111222,11111222,99999999' 
TABS,ioos:station:wmo:42049:1,2016-08-03T07:00:00Z,28.3507,-96.0058,2.0,322.1253154,18.92691206,-99999.0,'11111222,11111222,99999999' 
TABS,ioos:station:wmo:42049:1,2016-08-03T07:30:00Z,28.3507,-96.0058,2.0,331.1580515,16.77033691,-99999.0,'11111222,11111222,99999999' 
TABS,ioos:station:wmo:42049:1,2016-08-03T08:00:00Z,28.3507,-96.0058,2.0,333.0200428,16.04644509,-99999.0,'11111222,11111222,99999999' 
TABS,ioos:station:wmo:42049:1,2016-08-03T08:30:00Z,28.3507,-96.0058,2.0,334.4347394,16.1513405,-99999.0,'11111222,11111222,99999999' 
TABS,ioos:station:wmo:42049:1,2016-08-03T09:00:00Z,28.3507,-96.0058,2.0,336.6755883,14.32031424,-99999.0,'11111222,11111222,99999999' 
TABS,ioos:station:wmo:42049:1,2016-08-03T09:30:00Z,28.3507,-96.0058,2.0,344.2916094,10.63729289,-99999.0,'11111222,11111222,99999999' 
TABS,ioos:station:wmo:42049:1,2016-08-03T10:00:00Z,28.3507,-96.0058,2.0,334.987569,8.254120183,-99999.0,'11133222,11111222,99999999' 
TABS,ioos:station:wmo:42049:1,2016-08-03T10:30:00Z,28.3507,-96.0058,2.0,342.1566379,11.03061195,-99999.0,'11111222,11111222,99999999' 
TABS,ioos:station:wmo:42049:1,2016-08-03T11:00:00Z,28.3507,-96.0058,2.0,0.355527736,6.45012403,-99999.0,'11133222,11111222,99999999' 
TABS,ioos:station:wmo:42049:1,2016-08-03T11:30:00Z,28.3507,-96.0058,2.0,342.2183162,5.271859255,-99999.0,'11133222,11111222,99999999' 
TABS,ioos:station:wmo:42049:1,2016-08-03T12:00:00Z,28.3507,-96.0058,2.0,342.1462293,4.99033065,-99999.0,'11133222,11111222,99999999' 
TABS,ioos:station:wmo:42049:1,2016-08-03T12:30:00Z,28.3507,-96.0058,2.0,72.64601594,0.502891638,-99999.0,'11133222,11111222,99999999' 
TABS,ioos:station:wmo:42049:1,2016-08-03T13:00:00Z,28.3507,-96.0058,2.0,251.6551877,2.001724257,-99999.0,'11133222,11111222,99999999' 
TABS,ioos:station:wmo:42049:1,2016-08-03T13:30:00Z,28.3507,-96.0058,2.0,187.9912267,4.675403726,-99999.0,'11133222,11111222,99999999' 
TABS,ioos:station:wmo:42049:1,2016-08-03T14:00:00Z,28.3507,-96.0058,2.0,197.4256041,9.51676941,-99999.0,'11133222,11111222,99999999' 
TABS,ioos:station:wmo:42049:1,2016-08-03T14:30:00Z,28.3507,-96.0058,2.0,209.7067324,5.629937833,-99999.0,'11133222,11111222,99999999' 
TABS,ioos:station:wmo:42049:1,2016-08-03T15:00:00Z,28.3507,-96.0058,2.0,198.0682036,8.898831384,-99999.0,'11133222,11111222,99999999' 
TABS,ioos:station:wmo:42049:1,2016-08-03T15:30:00Z,28.3507,-96.0058,2.0,188.5988581,12.43983923,-99999.0,'11111222,11111222,99999999' 
TABS,ioos:station:wmo:42049:1,2016-08-03T16:00:00Z,28.3507,-96.0058,2.0,205.262829,11.80948771,-99999.0,'11111222,11111222,99999999' 
TABS,ioos:station:wmo:42049:1,2016-08-03T16:30:00Z,28.3507,-96.0058,2.0,206.914138,11.00165897,-99999.0,'11111222,11111222,99999999' 
TABS,ioos:station:wmo:42049:1,2016-08-03T17:00:00Z,28.3507,-96.0058,2.0,204.2504416,12.51429982,-99999.0,'11111222,11111222,99999999' 
TABS,ioos:station:wmo:42049:1,2016-08-03T17:30:00Z,28.3507,-96.0058,2.0,213.3251161,14.81634233,-99999.0,'11111222,11111222,99999999' 
TABS,ioos:station:wmo:42049:1,2016-08-03T18:00:00Z,28.3507,-96.0058,2.0,215.1363881,13.95238331,-99999.0,'11111222,11111222,99999999' 
TABS,ioos:station:wmo:42049:1,2016-08-03T18:30:00Z,28.3507,-96.0058,2.0,228.9694033,14.19741174,-99999.0,'11111222,11111222,99999999' 
TABS,ioos:station:wmo:42049:1,2016-08-03T19:00:00Z,28.3507,-96.0058,2.0,228.7204944,13.2933442,-99999.0,'11111222,11111222,99999999' 
TABS,ioos:station:wmo:42049:1,2016-08-03T19:30:00Z,28.3507,-96.0058,2.0,228.9431009,15.83425401,-99999.0,'11111222,11111222,99999999' 
TABS,ioos:station:wmo:42049:1,2016-08-03T20:00:00Z,28.3507,-96.0058,2.0,228.8404475,16.15123834,-99999.0,'11111222,11111222,99999999' 
TABS,ioos:station:wmo:42049:1,2016-08-03T20:30:00Z,28.3507,-96.0058,2.0,238.3143548,16.88708974,-99999.0,'11111222,11111222,99999999' 
TABS,ioos:station:wmo:42049:1,2016-08-03T21:00:00Z,28.3507,-96.0058,2.0,253.3353458,18.83086828,-99999.0,'11111222,11111222,99999999' 
TABS,ioos:station:wmo:42049:1,2016-08-03T21:30:00Z,28.3507,-96.0058,2.0,259.966482,22.44321947,-99999.0,'11111222,11111222,99999999' 
TABS,ioos:station:wmo:42049:1,2016-08-03T22:00:00Z,28.3507,-96.0058,2.0,269.7822218,26.36018968,-99999.0,'11111222,11111222,99999999' 
TABS,ioos:station:wmo:42049:1,2016-08-03T22:30:00Z,28.3507,-96.0058,2.0,276.0678384,24.12514456,-99999.0,'11111222,11111222,99999999' 
TABS,ioos:station:wmo:42049:1,2016-08-03T23:00:00Z,28.3507,-96.0058,2.0,275.6942943,23.88785884,-99999.0,'11111222,11111222,99999999' 
TABS,ioos:station:wmo:42049:1,2016-08-03T23:30:00Z,28.3507,-96.0058,2.0,276.069528,25.44260403,-99999.0,'11111222,11111222,99999999' 
TABS,ioos:station:wmo:42049:1,2016-08-04T00:00:00Z,28.3507,-96.0058,2.0,278.7967401,25.17611765,-99999.0,'11111222,11111222,99999999' 
TABS,ioos:station:wmo:42049:1,2016-08-04T00:30:00Z,28.3507,-96.0058,2.0,283.1786751,28.99353376,-99999.0,'11111222,11111222,99999999' 
TABS,ioos:station:wmo:42049:1,2016-08-04T01:00:00Z,28.3507,-96.0058,2.0,283.2140532,31.7608879,-99999.0,'11111222,11111222,99999999' 
TABS,ioos:station:wmo:42049:1,2016-08-04T01:30:00Z,28.3507,-96.0058,2.0,283.1395337,32.68568188,-99999.0,'11111222,11111222,99999999' 
TABS,ioos:station:wmo:42049:1,2016-08-04T02:00:00Z,28.3507,-96.0058,2.0,290.8327518,33.48937294,-99999.0,'11111222,11111222,99999999' 
TABS,ioos:station:wmo:42049:1,2016-08-04T02:30:00Z,28.3507,-96.0058,2.0,291.4256646,33.94583921,-99999.0,'11111222,11111222,99999999' 
TABS,ioos:station:wmo:42049:1,2016-08-04T03:00:00Z,28.3507,-96.0058,2.0,293.50313,32.64849154,-99999.0,'11111222,11111222,99999999' 
TABS,ioos:station:wmo:42049:1,2016-08-04T03:30:00Z,28.3507,-96.0058,2.0,292.9895894,31.62142628,-99999.0,'11111222,11111222,99999999' 
TABS,ioos:station:wmo:42049:1,2016-08-04T04:00:00Z,28.3507,-96.0058,2.0,296.8597343,31.34114229,-99999.0,'11111222,11111222,99999999' 
TABS,ioos:station:wmo:42049:1,2016-08-04T04:30:00Z,28.3507,-96.0058,2.0,296.6196073,28.36677105,-99999.0,'11111222,11111222,99999999' 
TABS,ioos:station:wmo:42049:1,2016-08-04T05:00:00Z,28.3507,-96.0058,2.0,295.5688344,29.05539021,-99999.0,'11111222,11111222,99999999' 
TABS,ioos:station:wmo:42049:1,2016-08-04T05:30:00Z,28.3507,-96.0058,2.0,291.526011,24.69219512,-99999.0,'11111222,11111222,99999999' 
TABS,ioos:station:wmo:42049:1,2016-08-04T06:00:00Z,28.3507,-96.0058,2.0,296.0458265,25.64428201,-99999.0,'11111222,11111222,99999999' 
TABS,ioos:station:wmo:42049:1,2016-08-04T06:30:00Z,28.3507,-96.0058,2.0,287.9059576,22.2475729,-99999.0,'11111222,11111222,99999999' 
TABS,ioos:station:wmo:42049:1,2016-08-04T07:00:00Z,28.3507,-96.0058,2.0,288.6603673,20.12805256,-99999.0,'11111222,11111222,99999999' 
TABS,ioos:station:wmo:42049:1,2016-08-04T07:30:00Z,28.3507,-96.0058,2.0,282.2710283,16.60944912,-99999.0,'11111222,11111222,99999999' 
TABS,ioos:station:wmo:42049:1,2016-08-04T08:00:00Z,28.3507,-96.0058,2.0,275.8777998,15.72264927,-99999.0,'11111222,11111222,99999999' 
TABS,ioos:station:wmo:42049:1,2016-08-04T08:30:00Z,28.3507,-96.0058,2.0,285.7811373,11.9504184,-99999.0,'11111222,11111222,99999999' 
TABS,ioos:station:wmo:42049:1,2016-08-04T09:00:00Z,28.3507,-96.0058,2.0,287.2862844,11.03856875,-99999.0,'11111222,11111222,99999999' 
TABS,ioos:station:wmo:42049:1,2016-08-04T09:30:00Z,28.3507,-96.0058,2.0,276.8179335,9.013733965,-99999.0,'11133222,11111222,99999999' 
TABS,ioos:station:wmo:42049:1,2016-08-04T10:00:00Z,28.3507,-96.0058,2.0,248.9621173,6.128490842,-99999.0,'11133222,11111222,99999999' 
TABS,ioos:station:wmo:42049:1,2016-08-04T10:30:00Z,28.3507,-96.0058,2.0,237.7127548,9.06097125,-99999.0,'11133222,11111222,99999999' 
TABS,ioos:station:wmo:42049:1,2016-08-04T11:00:00Z,28.3507,-96.0058,2.0,236.3390483,10.78892024,-99999.0,'11111222,11111222,99999999' 
TABS,ioos:station:wmo:42049:1,2016-08-04T11:30:00Z,28.3507,-96.0058,2.0,240.2474657,9.733005702,-99999.0,'11133222,11111222,99999999' 
TABS,ioos:station:wmo:42049:1,2016-08-04T12:00:00Z,28.3507,-96.0058,2.0,233.6741026,10.73648453,-99999.0,'11111222,11111222,99999999' 
TABS,ioos:station:wmo:42049:1,2016-08-04T12:30:00Z,28.3507,-96.0058,2.0,222.9484249,9.87754018,-99999.0,'11133222,11111222,99999999' 
TABS,ioos:station:wmo:42049:1,2016-08-04T13:00:00Z,28.3507,-96.0058,2.0,232.0161696,11.11409915,-99999.0,'11111222,11111222,99999999' 
TABS,ioos:station:wmo:42049:1,2016-08-04T13:30:00Z,28.3507,-96.0058,2.0,227.9219255,10.81865981,-99999.0,'11111222,11111222,99999999' 
TABS,ioos:station:wmo:42049:1,2016-08-04T14:00:00Z,28.3507,-96.0058,2.0,244.9553561,10.11058851,-99999.0,'11111222,11111222,99999999' 
TABS,ioos:station:wmo:42049:1,2016-08-04T14:30:00Z,28.3507,-96.0058,2.0,240.0983709,10.45120567,-99999.0,'11111222,11111222,99999999' 
TABS,ioos:station:wmo:42049:1,2016-08-04T15:00:00Z,28.3507,-96.0058,2.0,233.2898109,10.7400419,-99999.0,'11111222,11111222,99999999' 
TABS,ioos:station:wmo:42049:1,2016-08-04T15:30:00Z,28.3507,-96.0058,2.0,225.4375614,12.02823761,-99999.0,'11111222,11111222,99999999' 
TABS,ioos:station:wmo:42049:1,2016-08-04T16:00:00Z,28.3507,-96.0058,2.0,225.6785109,11.93680024,-99999.0,'11111222,11111222,99999999' 